RYR6RF EGSS-LEAM

Flight info

Callsign RYR6RF
Flight time 2h 44m
Altitude 37000
Route NUGBO M183 SILVA Q41 COWLY UT71 VAPID UN859 SOPIL DCT BALAN DCT LMG DCT PIMQO DCT AGN DCT ANETO N860 DOSEK
Aircraft B38M/M-SDE1FGHILORVWXY/HB1

Departure

Time 2026-04-20 19:52
Airport London Stansted Airport (EGSS)

Arrival

Time 2026-04-20 22:36
Airport Almería Airport (LEAM)
Time Latitude Longitude Altitude Speed Heading
2026-04-20 19:00 51.89216 0.26007 355 ft 0 kts 43°
2026-04-20 19:33 51.89215 0.26005 355 ft 1 kts 42°
2026-04-20 19:34 51.89202 0.25986 364 ft 2 kts 43°
2026-04-20 19:34 51.89190 0.25969 358 ft 3 kts 28°
2026-04-20 19:34 51.89174 0.25963 357 ft 3 kts 342°
2026-04-20 19:34 51.89158 0.25979 359 ft 3 kts 315°
2026-04-20 19:35 51.89151 0.25991 364 ft 1 kts 313°
2026-04-20 19:35 51.89150 0.25993 364 ft 0 kts 313°
2026-04-20 19:38 51.89158 0.25979 355 ft 3 kts 313°
2026-04-20 19:38 51.89177 0.25946 358 ft 5 kts 313°
2026-04-20 19:39 51.89207 0.25894 358 ft 8 kts 313°
2026-04-20 19:39 51.89248 0.25823 361 ft 10 kts 313°
2026-04-20 19:39 51.89298 0.25735 355 ft 11 kts 313°
2026-04-20 19:39 51.89355 0.25635 358 ft 13 kts 312°
2026-04-20 19:40 51.89400 0.25515 356 ft 12 kts 308°
2026-04-20 19:40 51.89405 0.25409 363 ft 9 kts 243°
2026-04-20 19:40 51.89367 0.25337 355 ft 8 kts 223°
2026-04-20 19:40 51.89329 0.25279 358 ft 7 kts 223°
2026-04-20 19:41 51.89291 0.25223 362 ft 8 kts 219°
2026-04-20 19:41 51.89231 0.25203 355 ft 10 kts 158°
2026-04-20 19:41 51.89164 0.25242 356 ft 11 kts 194°
2026-04-20 19:41 51.89097 0.25159 358 ft 13 kts 223°
2026-04-20 19:42 51.89024 0.25051 361 ft 15 kts 223°
2026-04-20 19:42 51.88943 0.24928 355 ft 17 kts 223°
2026-04-20 19:42 51.88852 0.24792 355 ft 19 kts 223°
2026-04-20 19:42 51.88751 0.24640 353 ft 21 kts 223°
2026-04-20 19:43 51.88637 0.24471 353 ft 19 kts 223°
2026-04-20 19:43 51.88541 0.24326 352 ft 19 kts 223°
2026-04-20 19:43 51.88448 0.24184 354 ft 18 kts 223°
2026-04-20 19:43 51.88359 0.24050 347 ft 16 kts 222°
2026-04-20 19:44 51.88280 0.23932 351 ft 15 kts 223°
2026-04-20 19:44 51.88203 0.23818 346 ft 15 kts 223°
2026-04-20 19:44 51.88122 0.23697 348 ft 16 kts 223°
2026-04-20 19:44 51.88039 0.23571 352 ft 17 kts 223°
2026-04-20 19:45 51.87947 0.23432 346 ft 19 kts 223°
2026-04-20 19:45 51.87846 0.23282 347 ft 20 kts 223°
2026-04-20 19:45 51.87747 0.23130 346 ft 14 kts 230°
2026-04-20 19:45 51.87744 0.23020 350 ft 9 kts 303°
2026-04-20 19:46 51.87781 0.22926 346 ft 11 kts 279°
2026-04-20 19:46 51.87743 0.22831 336 ft 11 kts 223°
2026-04-20 19:46 51.87678 0.22734 340 ft 14 kts 223°
2026-04-20 19:46 51.87599 0.22613 337 ft 18 kts 223°
2026-04-20 19:47 51.87497 0.22461 333 ft 22 kts 223°
2026-04-20 19:47 51.87413 0.22325 330 ft 14 kts 238°
2026-04-20 19:47 51.87410 0.22199 327 ft 9 kts 297°
2026-04-20 19:47 51.87429 0.22156 325 ft 0 kts 312°
2026-04-20 19:49 51.87431 0.22154 327 ft 2 kts 312°
2026-04-20 19:50 51.87453 0.22113 325 ft 8 kts 313°
2026-04-20 19:50 51.87499 0.22036 323 ft 10 kts 320°
2026-04-20 19:50 51.87559 0.22065 325 ft 11 kts 46°
2026-04-20 19:50 51.87614 0.22150 326 ft 11 kts 43°
2026-04-20 19:51 51.87700 0.22276 329 ft 40 kts 43°
2026-04-20 19:51 51.88098 0.22874 330 ft 115 kts 43°
2026-04-20 19:51 51.88842 0.23988 388 ft 172 kts 43°
2026-04-20 19:51 51.89799 0.25442 922 ft 198 kts 43°
2026-04-20 19:52 51.90769 0.26908 2279 ft 185 kts 44°
2026-04-20 19:52 51.91776 0.28422 2868 ft 207 kts 42°
2026-04-20 19:52 51.93098 0.29513 3366 ft 225 kts 12°
2026-04-20 19:52 51.94666 0.29330 4316 ft 228 kts 343°
2026-04-20 19:53 51.96021 0.27983 4901 ft 238 kts 318°
2026-04-20 19:53 51.96845 0.25655 5013 ft 244 kts 287°
2026-04-20 19:53 51.97144 0.22927 5032 ft 247 kts 283°
2026-04-20 19:53 51.97442 0.20198 5039 ft 246 kts 283°
2026-04-20 19:54 51.97744 0.17455 5038 ft 246 kts 283°
2026-04-20 19:54 51.98044 0.14725 5033 ft 247 kts 284°
2026-04-20 19:54 51.98346 0.11964 5496 ft 249 kts 283°
2026-04-20 19:54 51.98644 0.09232 6575 ft 246 kts 283°
2026-04-20 19:55 51.98870 0.06454 7403 ft 252 kts 270°
2026-04-20 19:55 51.98588 0.03627 8247 ft 257 kts 262°
2026-04-20 19:55 51.98242 0.00748 9039 ft 262 kts 261°
2026-04-20 19:55 51.97884 -0.02162 9891 ft 265 kts 260°
2026-04-20 19:56 51.97638 -0.04127 10371 ft 270 kts 261°
2026-04-20 19:56 51.97121 -0.08189 11139 ft 286 kts 260°
2026-04-20 19:56 51.96699 -0.11447 11499 ft 305 kts 260°
2026-04-20 19:56 51.96248 -0.14929 11831 ft 324 kts 260°
2026-04-20 19:57 51.95772 -0.18584 12284 ft 338 kts 260°
2026-04-20 19:57 51.95282 -0.22316 13092 ft 339 kts 260°
2026-04-20 19:57 51.94790 -0.26075 13846 ft 342 kts 259°
2026-04-20 19:57 51.94293 -0.29857 14547 ft 345 kts 260°
2026-04-20 19:58 51.93790 -0.33674 15231 ft 347 kts 260°
2026-04-20 19:58 51.93281 -0.37529 15896 ft 350 kts 260°
2026-04-20 19:58 51.92769 -0.41391 16541 ft 353 kts 259°
2026-04-20 19:58 51.92253 -0.45276 17178 ft 355 kts 260°
2026-04-20 19:59 51.91727 -0.49223 17807 ft 358 kts 260°
2026-04-20 19:59 51.91199 -0.53174 18420 ft 361 kts 260°
2026-04-20 19:59 51.90668 -0.57145 18972 ft 363 kts 260°
2026-04-20 19:59 51.90133 -0.61131 19563 ft 362 kts 260°
2026-04-20 20:00 51.89597 -0.65114 20170 ft 362 kts 261°
2026-04-20 20:00 51.89059 -0.69099 20769 ft 362 kts 261°
2026-04-20 20:00 51.88519 -0.73081 21347 ft 362 kts 261°
2026-04-20 20:00 51.87982 -0.77040 21915 ft 362 kts 262°
2026-04-20 20:01 51.87438 -0.81037 22485 ft 362 kts 262°
2026-04-20 20:01 51.86894 -0.85018 23034 ft 363 kts 262°
2026-04-20 20:01 51.86350 -0.88996 23582 ft 363 kts 262°
2026-04-20 20:01 51.85757 -0.92984 24057 ft 367 kts 256°
2026-04-20 20:02 51.84548 -0.96691 24503 ft 380 kts 239°
2026-04-20 20:02 51.82593 -0.99672 24973 ft 396 kts 221°
2026-04-20 20:02 51.80101 -1.01602 25384 ft 412 kts 204°
2026-04-20 20:02 51.77208 -1.02468 25793 ft 422 kts 197°
2026-04-20 20:03 51.74300 -1.03219 26105 ft 424 kts 198°
2026-04-20 20:03 51.71379 -1.03982 26454 ft 427 kts 197°
2026-04-20 20:03 51.68439 -1.04740 26803 ft 429 kts 197°
2026-04-20 20:03 51.65491 -1.05496 27133 ft 431 kts 198°
2026-04-20 20:04 51.63522 -1.06001 27353 ft 432 kts 198°
2026-04-20 20:04 51.60591 -1.06969 27664 ft 427 kts 205°
2026-04-20 20:04 51.57720 -1.08249 27958 ft 431 kts 204°
2026-04-20 20:04 51.54807 -1.09487 28270 ft 433 kts 203°
2026-04-20 20:05 51.51881 -1.10704 28601 ft 435 kts 203°
2026-04-20 20:05 51.48945 -1.11914 28904 ft 437 kts 204°
2026-04-20 20:05 51.46003 -1.13174 29194 ft 439 kts 204°
2026-04-20 20:05 51.43051 -1.14439 29486 ft 441 kts 204°
2026-04-20 20:06 51.40080 -1.15708 29775 ft 443 kts 204°
2026-04-20 20:06 51.37104 -1.16975 30076 ft 444 kts 204°
2026-04-20 20:06 51.34102 -1.18253 30342 ft 446 kts 204°
2026-04-20 20:06 51.31095 -1.19528 30535 ft 448 kts 204°
2026-04-20 20:07 51.28090 -1.20803 30783 ft 449 kts 204°
2026-04-20 20:07 51.25051 -1.22090 30994 ft 451 kts 204°
2026-04-20 20:07 51.22011 -1.23376 31213 ft 453 kts 203°
2026-04-20 20:07 51.18966 -1.24661 31445 ft 455 kts 203°
2026-04-20 20:08 51.15898 -1.25956 31647 ft 456 kts 203°
2026-04-20 20:08 51.12820 -1.27253 31879 ft 458 kts 203°
2026-04-20 20:08 51.09745 -1.28546 32176 ft 457 kts 203°
2026-04-20 20:08 51.06675 -1.29836 32479 ft 457 kts 203°
2026-04-20 20:09 51.03607 -1.31123 32755 ft 457 kts 203°
2026-04-20 20:09 51.00529 -1.32412 33057 ft 456 kts 203°
2026-04-20 20:09 50.97464 -1.33695 33344 ft 456 kts 202°
2026-04-20 20:09 50.94503 -1.35342 33604 ft 442 kts 215°
2026-04-20 20:10 50.91786 -1.37559 33874 ft 442 kts 214°
2026-04-20 20:10 50.89025 -1.39727 34073 ft 443 kts 214°
2026-04-20 20:10 50.86272 -1.41910 34271 ft 442 kts 214°
2026-04-20 20:10 50.83550 -1.44076 34419 ft 444 kts 214°
2026-04-20 20:11 50.80777 -1.46281 34593 ft 445 kts 214°
2026-04-20 20:11 50.78012 -1.48478 34769 ft 445 kts 214°
2026-04-20 20:11 50.75240 -1.50679 34950 ft 446 kts 214°
2026-04-20 20:11 50.72468 -1.52876 35122 ft 446 kts 213°
2026-04-20 20:12 50.69690 -1.55075 35318 ft 447 kts 213°
2026-04-20 20:12 50.66914 -1.57270 35484 ft 447 kts 213°
2026-04-20 20:12 50.64130 -1.59468 35673 ft 448 kts 213°
2026-04-20 20:13 50.58549 -1.63866 35936 ft 449 kts 212°
2026-04-20 20:13 50.55757 -1.66061 36103 ft 449 kts 212°
2026-04-20 20:13 50.52955 -1.68263 36262 ft 450 kts 212°
2026-04-20 20:13 50.50155 -1.70458 36421 ft 450 kts 212°
2026-04-20 20:14 50.47358 -1.72649 36562 ft 450 kts 212°
2026-04-20 20:14 50.44550 -1.74846 36713 ft 451 kts 212°
2026-04-20 20:14 50.41742 -1.77040 36848 ft 451 kts 212°
2026-04-20 20:14 50.38933 -1.79230 36969 ft 451 kts 212°
2026-04-20 20:15 50.36126 -1.81417 37151 ft 450 kts 211°
2026-04-20 20:15 50.33325 -1.83597 37256 ft 450 kts 211°
2026-04-20 20:15 50.27727 -1.87944 37236 ft 448 kts 211°
2026-04-20 20:16 50.22130 -1.92279 37230 ft 448 kts 211°
2026-04-20 20:16 50.16548 -1.96591 37214 ft 448 kts 211°
2026-04-20 20:17 50.10988 -2.00875 37224 ft 445 kts 211°
2026-04-20 20:17 50.05473 -2.05113 37228 ft 445 kts 211°
2026-04-20 20:18 49.99918 -2.09373 37225 ft 445 kts 211°
2026-04-20 20:18 49.94041 -2.12605 37225 ft 451 kts 202°
2026-04-20 20:19 49.88057 -2.15418 37225 ft 448 kts 201°
2026-04-20 20:19 49.82080 -2.18207 37220 ft 449 kts 201°
2026-04-20 20:20 49.76103 -2.20987 37214 ft 449 kts 201°
2026-04-20 20:20 49.70130 -2.23759 37211 ft 448 kts 201°
2026-04-20 20:21 49.64178 -2.26514 37205 ft 445 kts 202°
2026-04-20 20:21 49.58251 -2.29250 37204 ft 444 kts 202°
2026-04-20 20:22 49.52323 -2.31980 37209 ft 445 kts 201°
2026-04-20 20:22 49.46406 -2.34698 37187 ft 443 kts 202°
2026-04-20 20:23 49.40504 -2.37402 37187 ft 442 kts 202°
2026-04-20 20:23 49.34610 -2.40095 37200 ft 442 kts 202°
2026-04-20 20:24 49.28705 -2.42787 37184 ft 442 kts 202°
2026-04-20 20:24 49.22803 -2.45470 37190 ft 442 kts 201°
2026-04-20 20:25 49.16915 -2.48141 37193 ft 442 kts 201°
2026-04-20 20:25 49.11015 -2.50811 37186 ft 442 kts 201°
2026-04-20 20:26 49.05156 -2.53455 37165 ft 442 kts 201°
2026-04-20 20:26 48.99271 -2.56105 37180 ft 441 kts 201°
2026-04-20 20:27 48.93386 -2.58748 37177 ft 441 kts 201°
2026-04-20 20:27 48.87498 -2.61386 37175 ft 441 kts 201°
2026-04-20 20:28 48.81598 -2.64023 37167 ft 441 kts 201°
2026-04-20 20:28 48.75705 -2.66650 37164 ft 441 kts 201°
2026-04-20 20:29 48.69816 -2.69269 37158 ft 441 kts 201°
2026-04-20 20:29 48.63923 -2.71884 37158 ft 441 kts 201°
2026-04-20 20:30 48.58032 -2.74491 37154 ft 441 kts 201°
2026-04-20 20:30 48.52134 -2.77095 37155 ft 441 kts 201°
2026-04-20 20:31 48.46236 -2.79692 37150 ft 441 kts 201°
2026-04-20 20:31 48.40333 -2.82286 37148 ft 441 kts 201°
2026-04-20 20:32 48.34454 -2.84862 37141 ft 441 kts 201°
2026-04-20 20:32 48.28552 -2.87443 37138 ft 441 kts 201°
2026-04-20 20:33 48.22657 -2.90014 37130 ft 441 kts 201°
2026-04-20 20:33 48.16760 -2.92582 37109 ft 441 kts 201°
2026-04-20 20:34 48.10853 -2.95145 37127 ft 442 kts 201°
2026-04-20 20:34 48.04958 -2.97698 37115 ft 442 kts 201°
2026-04-20 20:35 47.99052 -3.00250 37117 ft 442 kts 201°
2026-04-20 20:35 47.93151 -3.02794 37118 ft 441 kts 201°
2026-04-20 20:36 47.87270 -3.05322 37103 ft 440 kts 201°
2026-04-20 20:36 47.81372 -3.07852 37105 ft 441 kts 201°
2026-04-20 20:37 47.75469 -3.10379 37086 ft 441 kts 201°
2026-04-20 20:37 47.69598 -3.12885 37094 ft 439 kts 201°
2026-04-20 20:38 47.63732 -3.15384 37100 ft 439 kts 201°
2026-04-20 20:38 47.57865 -3.17877 37095 ft 439 kts 201°
2026-04-20 20:39 47.51989 -3.20368 37093 ft 438 kts 201°
2026-04-20 20:39 47.46158 -3.22834 37091 ft 437 kts 201°
2026-04-20 20:40 47.40303 -3.25305 37085 ft 437 kts 201°
2026-04-20 20:40 47.34453 -3.27768 37086 ft 437 kts 201°
2026-04-20 20:41 47.28619 -3.30219 37082 ft 435 kts 201°
2026-04-20 20:41 47.22854 -3.32635 37080 ft 433 kts 201°
2026-04-20 20:42 47.17055 -3.35061 37075 ft 433 kts 201°
2026-04-20 20:42 47.11269 -3.37474 37066 ft 433 kts 201°
2026-04-20 20:43 47.05472 -3.39887 37071 ft 432 kts 201°
2026-04-20 20:43 46.99693 -3.42287 37067 ft 432 kts 200°
2026-04-20 20:44 46.93905 -3.44686 37065 ft 432 kts 200°
2026-04-20 20:44 46.88111 -3.47081 37062 ft 432 kts 200°
2026-04-20 20:45 46.82320 -3.49470 37063 ft 432 kts 200°
2026-04-20 20:45 46.76531 -3.51853 37065 ft 432 kts 200°
2026-04-20 20:46 46.71685 -3.53844 37061 ft 432 kts 200°
2026-04-20 20:46 46.65895 -3.56218 37053 ft 432 kts 200°
2026-04-20 20:47 46.60142 -3.58572 37054 ft 432 kts 200°
2026-04-20 20:47 46.54348 -3.60938 37050 ft 432 kts 200°
2026-04-20 20:48 46.48558 -3.63296 37038 ft 432 kts 200°
2026-04-20 20:48 46.42779 -3.65646 37041 ft 432 kts 200°
2026-04-20 20:49 46.36987 -3.67995 37042 ft 432 kts 200°
2026-04-20 20:49 46.31040 -3.69357 37007 ft 441 kts 178°
2026-04-20 20:50 46.25018 -3.68042 37023 ft 446 kts 175°
2026-04-20 20:50 46.18878 -3.66558 37028 ft 448 kts 174°
2026-04-20 20:51 46.12748 -3.65031 37027 ft 447 kts 174°
2026-04-20 20:51 46.06610 -3.63499 37030 ft 448 kts 174°
2026-04-20 20:52 46.00466 -3.61968 37022 ft 448 kts 174°
2026-04-20 20:52 45.94333 -3.60444 37018 ft 448 kts 174°
2026-04-20 20:53 45.88192 -3.58921 37010 ft 448 kts 174°
2026-04-20 20:53 45.82045 -3.57400 37012 ft 449 kts 174°
2026-04-20 20:54 45.75889 -3.55880 37019 ft 449 kts 174°
2026-04-20 20:54 45.69746 -3.54367 37005 ft 448 kts 174°
2026-04-20 20:55 45.63588 -3.52853 37002 ft 448 kts 174°
2026-04-20 20:55 45.57453 -3.51349 37005 ft 448 kts 174°
2026-04-20 20:56 45.51302 -3.49844 36997 ft 448 kts 174°
2026-04-20 20:56 45.45194 -3.48352 37001 ft 448 kts 174°
2026-04-20 20:57 45.39013 -3.46847 36999 ft 448 kts 174°
2026-04-20 20:57 45.32866 -3.45352 36980 ft 448 kts 174°
2026-04-20 20:58 45.26730 -3.43865 36991 ft 447 kts 174°
2026-04-20 20:58 45.20594 -3.42379 36994 ft 447 kts 175°
2026-04-20 20:59 45.14506 -3.40910 36991 ft 447 kts 174°
2026-04-20 20:59 45.08333 -3.39422 36990 ft 447 kts 175°
2026-04-20 21:00 45.02211 -3.37950 36989 ft 446 kts 175°
2026-04-20 21:00 44.96173 -3.36501 36992 ft 446 kts 175°
2026-04-20 21:01 44.90019 -3.35028 36981 ft 446 kts 175°
2026-04-20 21:01 44.83887 -3.33563 36985 ft 446 kts 175°
2026-04-20 21:02 44.77773 -3.32105 36983 ft 446 kts 175°
2026-04-20 21:02 44.71660 -3.30652 36980 ft 446 kts 175°
2026-04-20 21:03 44.65540 -3.29199 36979 ft 446 kts 175°
2026-04-20 21:03 44.59424 -3.27751 36980 ft 446 kts 175°
2026-04-20 21:04 44.53301 -3.26304 36978 ft 445 kts 175°
2026-04-20 21:04 44.47194 -3.24863 36979 ft 445 kts 175°
2026-04-20 21:05 44.41084 -3.23426 36978 ft 445 kts 175°
2026-04-20 21:05 44.34972 -3.21990 36973 ft 445 kts 175°
2026-04-20 21:06 44.28869 -3.20560 36980 ft 445 kts 175°
2026-04-20 21:06 44.22764 -3.19132 36976 ft 445 kts 175°
2026-04-20 21:07 44.16663 -3.17707 36964 ft 445 kts 175°
2026-04-20 21:07 44.10563 -3.16287 36977 ft 445 kts 175°
2026-04-20 21:08 44.04618 -3.13910 36959 ft 453 kts 152°
2026-04-20 21:08 43.99529 -3.08595 36959 ft 461 kts 145°
2026-04-20 21:09 43.94521 -3.03041 36977 ft 461 kts 144°
2026-04-20 21:09 43.89543 -2.97457 36974 ft 461 kts 144°
2026-04-20 21:10 43.84556 -2.91865 36977 ft 461 kts 144°
2026-04-20 21:10 43.79607 -2.86328 36971 ft 461 kts 144°
2026-04-20 21:11 43.74623 -2.80762 36977 ft 460 kts 144°
2026-04-20 21:11 43.69644 -2.75205 36978 ft 460 kts 144°
2026-04-20 21:12 43.64656 -2.69655 36981 ft 460 kts 144°
2026-04-20 21:12 43.59674 -2.64125 36960 ft 461 kts 144°
2026-04-20 21:13 43.54659 -2.58571 36968 ft 462 kts 144°
2026-04-20 21:13 43.49642 -2.53027 36960 ft 462 kts 144°
2026-04-20 21:14 43.44623 -2.47492 36962 ft 462 kts 144°
2026-04-20 21:14 43.39601 -2.41967 36950 ft 462 kts 144°
2026-04-20 21:15 43.34575 -2.36450 36964 ft 462 kts 144°
2026-04-20 21:15 43.29556 -2.30951 36964 ft 462 kts 144°
2026-04-20 21:16 43.24517 -2.25442 36959 ft 462 kts 144°
2026-04-20 21:16 43.19485 -2.19954 36959 ft 462 kts 145°
2026-04-20 21:17 43.14458 -2.14482 36963 ft 462 kts 145°
2026-04-20 21:17 43.09431 -2.09024 36960 ft 461 kts 145°
2026-04-20 21:18 43.04396 -2.03571 36957 ft 462 kts 145°
2026-04-20 21:18 42.99359 -1.98127 37110 ft 462 kts 145°
2026-04-20 21:19 42.96843 -1.95411 37339 ft 460 kts 145°
2026-04-20 21:19 42.94333 -1.92706 37532 ft 459 kts 145°
2026-04-20 21:19 42.91826 -1.90006 37717 ft 459 kts 145°
2026-04-20 21:20 42.86821 -1.84619 37967 ft 458 kts 145°
2026-04-20 21:20 42.81851 -1.79279 37931 ft 457 kts 145°
2026-04-20 21:21 42.76554 -1.74587 37922 ft 444 kts 166°
2026-04-20 21:21 42.73619 -1.73701 37944 ft 435 kts 181°
2026-04-20 21:21 42.70616 -1.73798 37937 ft 429 kts 193°
2026-04-20 21:21 42.67757 -1.74779 37937 ft 422 kts 205°
2026-04-20 21:22 42.65020 -1.76242 37948 ft 423 kts 206°
2026-04-20 21:22 42.59658 -1.79528 37928 ft 422 kts 209°
2026-04-20 21:23 42.54370 -1.82995 37933 ft 422 kts 210°
2026-04-20 21:23 42.49102 -1.86508 37936 ft 422 kts 210°
2026-04-20 21:24 42.43835 -1.90026 37931 ft 422 kts 210°
2026-04-20 21:24 42.38579 -1.93530 37917 ft 422 kts 210°
2026-04-20 21:25 42.33323 -1.97032 37929 ft 421 kts 210°
2026-04-20 21:25 42.28066 -2.00531 37937 ft 421 kts 210°
2026-04-20 21:26 42.22813 -2.04009 37940 ft 421 kts 210°
2026-04-20 21:26 42.17555 -2.07484 37933 ft 421 kts 210°
2026-04-20 21:27 42.12299 -2.10956 37950 ft 421 kts 210°
2026-04-20 21:27 42.07035 -2.14426 37961 ft 421 kts 210°
2026-04-20 21:28 42.01785 -2.17881 37972 ft 421 kts 210°
2026-04-20 21:28 41.96519 -2.21341 37933 ft 420 kts 210°
2026-04-20 21:29 41.91293 -2.24766 37969 ft 422 kts 209°
2026-04-20 21:29 41.85989 -2.28238 37965 ft 421 kts 209°
2026-04-20 21:30 41.80368 -2.30378 37971 ft 426 kts 186°
2026-04-20 21:30 41.74515 -2.31145 38004 ft 425 kts 191°
2026-04-20 21:31 41.68637 -2.32154 37955 ft 424 kts 191°
2026-04-20 21:31 41.63739 -2.33000 37973 ft 424 kts 191°
2026-04-20 21:32 41.56925 -2.34177 37969 ft 424 kts 191°
2026-04-20 21:32 41.51071 -2.35187 37954 ft 424 kts 191°
2026-04-20 21:33 41.46167 -2.36030 37961 ft 424 kts 191°
2026-04-20 21:33 41.40303 -2.37038 37966 ft 424 kts 191°
2026-04-20 21:34 41.34459 -2.38040 37967 ft 424 kts 191°
2026-04-20 21:34 41.28603 -2.39042 37957 ft 424 kts 191°
2026-04-20 21:35 41.22728 -2.40047 37966 ft 425 kts 190°
2026-04-20 21:35 41.16866 -2.41047 37975 ft 425 kts 190°
2026-04-20 21:36 41.11036 -2.42040 37956 ft 425 kts 190°
2026-04-20 21:36 41.05171 -2.43037 37983 ft 425 kts 190°
2026-04-20 21:37 40.99316 -2.44029 37969 ft 424 kts 190°
2026-04-20 21:37 40.93452 -2.45023 37969 ft 425 kts 190°
2026-04-20 21:38 40.87593 -2.46013 37946 ft 425 kts 190°
2026-04-20 21:38 40.81733 -2.47002 37968 ft 425 kts 190°
2026-04-20 21:39 40.75873 -2.47989 37966 ft 425 kts 190°
2026-04-20 21:39 40.70009 -2.48976 37970 ft 425 kts 190°
2026-04-20 21:40 40.64148 -2.49960 37966 ft 425 kts 190°
2026-04-20 21:40 40.58289 -2.50941 37964 ft 425 kts 190°
2026-04-20 21:41 40.52428 -2.51922 37964 ft 425 kts 190°
2026-04-20 21:41 40.46567 -2.52900 37972 ft 425 kts 190°
2026-04-20 21:42 40.40701 -2.53878 37958 ft 425 kts 190°
2026-04-20 21:42 40.35026 -2.55637 37980 ft 417 kts 204°
2026-04-20 21:43 40.29574 -2.58320 37958 ft 419 kts 203°
2026-04-20 21:43 40.24108 -2.61046 37961 ft 420 kts 203°
2026-04-20 21:44 40.18665 -2.63774 37953 ft 419 kts 203°
2026-04-20 21:44 40.13219 -2.66500 37955 ft 419 kts 203°
2026-04-20 21:45 40.07798 -2.69209 37962 ft 418 kts 203°
2026-04-20 21:45 40.02358 -2.71923 37964 ft 418 kts 203°
2026-04-20 21:46 39.96923 -2.74630 37958 ft 418 kts 203°
2026-04-20 21:46 39.91497 -2.77327 37960 ft 417 kts 203°
2026-04-20 21:47 39.86077 -2.80018 37959 ft 418 kts 203°
2026-04-20 21:47 39.80636 -2.82714 37949 ft 417 kts 203°
2026-04-20 21:48 39.75207 -2.85399 37953 ft 418 kts 203°
2026-04-20 21:48 39.69778 -2.88080 37951 ft 417 kts 203°
2026-04-20 21:49 39.64381 -2.90740 37950 ft 417 kts 203°
2026-04-20 21:49 39.58956 -2.93413 37947 ft 417 kts 203°
2026-04-20 21:50 39.53530 -2.96087 37939 ft 417 kts 203°
2026-04-20 21:50 39.48103 -2.98757 37944 ft 417 kts 203°
2026-04-20 21:51 39.42676 -3.01423 37944 ft 417 kts 203°
2026-04-20 21:51 39.37245 -3.04077 37947 ft 417 kts 203°
2026-04-20 21:52 39.31820 -3.06720 37946 ft 416 kts 202°
2026-04-20 21:52 39.26410 -3.09352 37950 ft 416 kts 202°
2026-04-20 21:53 39.20992 -3.11984 37946 ft 416 kts 202°
2026-04-20 21:53 39.15582 -3.14607 37947 ft 416 kts 202°
2026-04-20 21:54 39.10207 -3.17210 37947 ft 416 kts 202°
2026-04-20 21:54 39.04759 -3.19843 37950 ft 416 kts 202°
2026-04-20 21:55 38.99373 -3.22441 37948 ft 416 kts 202°
2026-04-20 21:55 38.93954 -3.25050 37953 ft 416 kts 202°
2026-04-20 21:56 38.88536 -3.27655 37954 ft 416 kts 202°
2026-04-20 21:56 38.83113 -3.30258 37942 ft 416 kts 202°
2026-04-20 21:57 38.77695 -3.32854 37958 ft 416 kts 202°
2026-04-20 21:57 38.72271 -3.35449 37957 ft 416 kts 202°
2026-04-20 21:58 38.66847 -3.38039 37959 ft 416 kts 202°
2026-04-20 21:58 38.61422 -3.40626 37956 ft 416 kts 202°
2026-04-20 21:59 38.55995 -3.43210 37961 ft 416 kts 202°
2026-04-20 21:59 38.50575 -3.45785 37955 ft 416 kts 202°
2026-04-20 22:00 38.45149 -3.48361 37963 ft 416 kts 202°
2026-04-20 22:00 38.39730 -3.50928 37952 ft 415 kts 202°
2026-04-20 22:01 38.34311 -3.53491 37954 ft 416 kts 202°
2026-04-20 22:01 38.28892 -3.56050 37951 ft 416 kts 202°
2026-04-20 22:02 38.23466 -3.58609 37954 ft 416 kts 202°
2026-04-20 22:02 38.18044 -3.61162 37947 ft 416 kts 202°
2026-04-20 22:02 38.15267 -3.62186 37920 ft 417 kts 188°
2026-04-20 22:03 38.12362 -3.62340 37964 ft 418 kts 184°
2026-04-20 22:03 38.06554 -3.62509 37950 ft 422 kts 183°
2026-04-20 22:04 38.00635 -3.62590 37941 ft 422 kts 183°
2026-04-20 22:04 37.94804 -3.62643 37953 ft 422 kts 183°
2026-04-20 22:05 37.88931 -3.62692 37944 ft 422 kts 183°
2026-04-20 22:05 37.83045 -3.62741 37970 ft 423 kts 183°
2026-04-20 22:06 37.77121 -3.62790 37967 ft 423 kts 183°
2026-04-20 22:06 37.71238 -3.62839 37976 ft 423 kts 183°
2026-04-20 22:07 37.65345 -3.62887 37962 ft 423 kts 183°
2026-04-20 22:07 37.59456 -3.62932 37987 ft 424 kts 183°
2026-04-20 22:08 37.53607 -3.62977 37995 ft 423 kts 183°
2026-04-20 22:08 37.47714 -3.63022 37990 ft 423 kts 183°
2026-04-20 22:09 37.41916 -3.61834 37961 ft 430 kts 157°
2026-04-20 22:09 37.39373 -3.59827 37990 ft 437 kts 142°
2026-04-20 22:09 37.37272 -3.57028 37996 ft 444 kts 128°
2026-04-20 22:10 37.34181 -3.50229 38006 ft 451 kts 121°
2026-04-20 22:10 37.31290 -3.43223 38013 ft 451 kts 120°
2026-04-20 22:10 37.29880 -3.39739 37410 ft 449 kts 120°
2026-04-20 22:11 37.28458 -3.36210 36471 ft 455 kts 119°
2026-04-20 22:11 37.27025 -3.32651 35844 ft 455 kts 119°
2026-04-20 22:11 37.25611 -3.29142 35471 ft 448 kts 118°
2026-04-20 22:11 37.24243 -3.25661 35082 ft 442 kts 118°
2026-04-20 22:12 37.22890 -3.22213 34614 ft 439 kts 118°
2026-04-20 22:12 37.21543 -3.18786 34109 ft 437 kts 118°
2026-04-20 22:12 37.20198 -3.15376 33563 ft 435 kts 118°
2026-04-20 22:12 37.18864 -3.11993 33043 ft 432 kts 118°
2026-04-20 22:13 37.17533 -3.08623 32583 ft 428 kts 118°
2026-04-20 22:13 37.16220 -3.05301 32121 ft 425 kts 118°
2026-04-20 22:13 37.14910 -3.01992 31657 ft 423 kts 118°
2026-04-20 22:13 37.13605 -2.98698 31192 ft 420 kts 118°
2026-04-20 22:14 37.12306 -2.95422 30732 ft 418 kts 118°
2026-04-20 22:14 37.11014 -2.92168 30273 ft 416 kts 118°
2026-04-20 22:14 37.09730 -2.88937 29776 ft 414 kts 118°
2026-04-20 22:14 37.08452 -2.85725 29291 ft 411 kts 118°
2026-04-20 22:15 37.07181 -2.82531 28874 ft 407 kts 118°
2026-04-20 22:15 37.06171 -2.79230 28369 ft 407 kts 102°
2026-04-20 22:15 37.05991 -2.75762 27984 ft 404 kts 84°
2026-04-20 22:15 37.06575 -2.72321 27664 ft 397 kts 74°
2026-04-20 22:16 37.07324 -2.69002 27304 ft 394 kts 73°
2026-04-20 22:16 37.08096 -2.65721 26870 ft 392 kts 73°
2026-04-20 22:16 37.08881 -2.62464 26496 ft 389 kts 73°
2026-04-20 22:16 37.09670 -2.59242 26096 ft 387 kts 72°
2026-04-20 22:17 37.10451 -2.56073 25740 ft 385 kts 72°
2026-04-20 22:17 37.11239 -2.52880 25369 ft 382 kts 72°
2026-04-20 22:17 37.12022 -2.49709 25004 ft 381 kts 72°
2026-04-20 22:17 37.12803 -2.46545 24631 ft 379 kts 72°
2026-04-20 22:18 37.13578 -2.43400 24278 ft 377 kts 72°
2026-04-20 22:18 37.14348 -2.40272 23916 ft 375 kts 72°
2026-04-20 22:18 37.15116 -2.37151 23551 ft 374 kts 73°
2026-04-20 22:18 37.15878 -2.34049 23141 ft 372 kts 72°
2026-04-20 22:19 37.16637 -2.30951 22770 ft 369 kts 73°
2026-04-20 22:19 37.17385 -2.27895 22426 ft 365 kts 72°
2026-04-20 22:19 37.18128 -2.24861 22091 ft 362 kts 72°
2026-04-20 22:19 37.18843 -2.21852 21740 ft 359 kts 77°
2026-04-20 22:20 37.19000 -2.18755 21280 ft 357 kts 99°
2026-04-20 22:20 37.18242 -2.15832 20902 ft 351 kts 122°
2026-04-20 22:20 37.17304 -2.14207 20687 ft 346 kts 136°
2026-04-20 22:20 37.15418 -2.12417 20311 ft 338 kts 156°
2026-04-20 22:21 37.13193 -2.11578 19868 ft 334 kts 177°
2026-04-20 22:21 37.10897 -2.11771 19356 ft 332 kts 197°
2026-04-20 22:21 37.08808 -2.12962 18812 ft 332 kts 217°
2026-04-20 22:21 37.07184 -2.15001 18305 ft 333 kts 237°
2026-04-20 22:22 37.06087 -2.18608 17579 ft 335 kts 264°
2026-04-20 22:22 37.06076 -2.20529 17274 ft 336 kts 276°
2026-04-20 22:22 37.06553 -2.23394 16862 ft 335 kts 283°
2026-04-20 22:22 37.07174 -2.26194 16495 ft 333 kts 285°
2026-04-20 22:23 37.07873 -2.28948 16139 ft 331 kts 287°
2026-04-20 22:23 37.08618 -2.31667 15791 ft 328 kts 288°
2026-04-20 22:23 37.09372 -2.34347 15440 ft 326 kts 285°
2026-04-20 22:23 37.09637 -2.37121 15092 ft 317 kts 264°
2026-04-20 22:24 37.09144 -2.39745 14781 ft 304 kts 250°
2026-04-20 22:24 37.08412 -2.42180 14460 ft 294 kts 249°
2026-04-20 22:24 37.07654 -2.44510 14142 ft 284 kts 248°
2026-04-20 22:24 37.06883 -2.46753 13850 ft 279 kts 247°
2026-04-20 22:25 37.06083 -2.49016 13528 ft 288 kts 246°
2026-04-20 22:25 37.05253 -2.51318 13199 ft 293 kts 246°
2026-04-20 22:25 37.04405 -2.53645 12870 ft 294 kts 246°
2026-04-20 22:25 37.03554 -2.55963 12550 ft 292 kts 246°
2026-04-20 22:26 37.02707 -2.58269 12200 ft 291 kts 245°
2026-04-20 22:26 37.01862 -2.60562 11901 ft 289 kts 245°
2026-04-20 22:26 37.01023 -2.62834 11593 ft 287 kts 245°
2026-04-20 22:27 36.99359 -2.67336 10994 ft 283 kts 245°
2026-04-20 22:27 36.98533 -2.69569 10699 ft 282 kts 244°
2026-04-20 22:27 36.97712 -2.71786 10390 ft 280 kts 244°
2026-04-20 22:27 36.96897 -2.73984 10157 ft 276 kts 244°
2026-04-20 22:28 36.96022 -2.76069 10011 ft 267 kts 232°
2026-04-20 22:28 36.94634 -2.77559 9722 ft 264 kts 207°
2026-04-20 22:28 36.92874 -2.78174 9413 ft 264 kts 184°
2026-04-20 22:28 36.91050 -2.77908 9144 ft 270 kts 167°
2026-04-20 22:29 36.89212 -2.77302 8866 ft 276 kts 166°
2026-04-20 22:29 36.87359 -2.76654 8555 ft 277 kts 165°
2026-04-20 22:29 36.85490 -2.75976 8024 ft 284 kts 164°
2026-04-20 22:29 36.83563 -2.75263 7307 ft 292 kts 163°
2026-04-20 22:30 36.81614 -2.74531 6778 ft 291 kts 163°
2026-04-20 22:30 36.79711 -2.73754 6326 ft 285 kts 154°
2026-04-20 22:30 36.78142 -2.72322 5877 ft 279 kts 130°
2026-04-20 22:30 36.77185 -2.70260 5440 ft 274 kts 107°
2026-04-20 22:31 36.76945 -2.67941 5026 ft 268 kts 86°
2026-04-20 22:31 36.77263 -2.65683 4649 ft 262 kts 75°
2026-04-20 22:31 36.77785 -2.63530 4226 ft 254 kts 72°
2026-04-20 22:31 36.78302 -2.61502 3858 ft 238 kts 72°
2026-04-20 22:32 36.78776 -2.59626 3565 ft 217 kts 72°
2026-04-20 22:32 36.79209 -2.57904 3260 ft 200 kts 72°
2026-04-20 22:32 36.79616 -2.56280 2981 ft 194 kts 72°
2026-04-20 22:32 36.80015 -2.54683 2718 ft 192 kts 72°
2026-04-20 22:33 36.80398 -2.53152 2474 ft 176 kts 73°
2026-04-20 22:33 36.80740 -2.51781 2304 ft 158 kts 73°
2026-04-20 22:33 36.81064 -2.50483 2056 ft 155 kts 72°
2026-04-20 22:33 36.81382 -2.49204 1844 ft 155 kts 72°
2026-04-20 22:34 36.81700 -2.47926 1634 ft 154 kts 72°
2026-04-20 22:34 36.82011 -2.46670 1423 ft 153 kts 72°
2026-04-20 22:34 36.82325 -2.45398 1207 ft 153 kts 71°
2026-04-20 22:34 36.82637 -2.44119 956 ft 154 kts 72°
2026-04-20 22:35 36.82938 -2.42851 706 ft 151 kts 71°
2026-04-20 22:35 36.83250 -2.41617 459 ft 148 kts 71°
2026-04-20 22:35 36.83555 -2.40418 263 ft 142 kts 72°
2026-04-20 22:35 36.83845 -2.39254 97 ft 141 kts 72°
2026-04-20 22:36 36.84126 -2.38104 36 ft 132 kts 71°
2026-04-20 22:36 36.84355 -2.37179 46 ft 81 kts 73°
2026-04-20 22:36 36.84481 -2.36663 47 ft 59 kts 73°
2026-04-20 22:36 36.84594 -2.36210 56 ft 47 kts 72°
2026-04-20 22:37 36.84670 -2.35895 55 ft 32 kts 72°
2026-04-20 22:37 36.84738 -2.35621 64 ft 34 kts 73°
2026-04-20 22:37 36.84796 -2.35391 67 ft 12 kts 66°
2026-04-20 22:37 36.84842 -2.35339 66 ft 9 kts 20°
2026-04-20 22:38 36.84913 -2.35350 65 ft 12 kts 328°
2026-04-20 22:38 36.84949 -2.35456 67 ft 16 kts 261°
2026-04-20 22:38 36.84918 -2.35592 65 ft 16 kts 253°
2026-04-20 22:38 36.84890 -2.35713 62 ft 14 kts 252°
2026-04-20 22:39 36.84855 -2.35845 62 ft 18 kts 253°
2026-04-20 22:39 36.84814 -2.36014 60 ft 23 kts 253°
2026-04-20 22:39 36.84767 -2.36207 58 ft 24 kts 253°
2026-04-20 22:39 36.84718 -2.36407 54 ft 24 kts 253°
2026-04-20 22:40 36.84669 -2.36603 53 ft 23 kts 253°
2026-04-20 22:40 36.84630 -2.36764 50 ft 15 kts 252°
2026-04-20 22:40 36.84614 -2.36885 49 ft 10 kts 291°
2026-04-20 22:40 36.84644 -2.36944 49 ft 8 kts 298°
2026-04-20 22:41 36.84644 -2.37014 48 ft 7 kts 255°
2026-04-20 22:41 36.84633 -2.37059 48 ft 4 kts 253°
2026-04-20 22:41 36.84624 -2.37096 44 ft 6 kts 253°
2026-04-20 22:41 36.84611 -2.37149 47 ft 4 kts 253°
2026-04-20 22:42 36.84603 -2.37184 46 ft 6 kts 252°
2026-04-20 22:42 36.84587 -2.37246 45 ft 7 kts 255°
2026-04-20 22:42 36.84589 -2.37255 45 ft 0 kts 303°
2026-04-20 22:42 36.84590 -2.37255 45 ft 0 kts 316°
2026-04-20 22:43 36.84648 -2.37263 45 ft 0 kts 242°